sat.trackr.live / text

‹ back to catalog

BEIDOU-3 IGSO-3 (C40)

NORAD 44709 · 2019-073A

PAYLOAD ACTIVE UNKNOWN

§ Identity

Operator
Country
PRC
Launch date
2019-11-04
Launch site
XICLF
Launch vehicle
Mass (kg)
RCS (m²)

Purposes: comms, nav

External: N2YO · Heavens-Above · Gunter

§ Orbital elements

Epoch: 2026-04-30T20:24:33.185376Z

Period
1,436.39 min
Inclination
54.8842°
Eccentricity
0.0042404
Mean motion
1.00251230 rev/d
Perigee alt
35,613.5 km
Apogee alt
35,971.2 km
Semi-major
42,170.5 km
B*
0.0000e+0
RAAN
281.4069°
Arg perigee
188.8195°
Mean anomaly
170.9972°
Rev number
2,398

§ Raw data

BEIDOU-3 IGSO-3 (C40)1 44709U 19073A   26120.85038409 -.00000212  00000+0  00000+0 0  99962 44709  54.8842 281.4069 0042404 188.8195 170.9972  1.00251230 23982

JSON: /api/v1/satellites/44709 · /tle

For live sub-satellite position, see the globe view (requires WebGL).

§ Visibility from observer

Set your observer location to see the next 7 days of passes ≥ 10°. The values pass through the URL so the page stays shareable.

No JS? Fill the form by hand. The geolocation button needs JavaScript.